User: anonymous   Login
Location: Voyageurs National Park
(48.5020°N, 92.9292°W)
Time: 14:46:52
(UTC-05:00)
Language:

Terra - Orbit

View from above orbital plane
View from above orbital plane
View from above satellite
View from above satellite

Ground track
Ground track

The orbit data is extracted from the following two-line orbital elements,

1 25994U 99068A   15188.40735689  .00000302  00000-0  77103-4 0  9993
2 25994 098.2103 262.6871 0001619 098.3483 261.7900 14.57104027827168
Epoch (UTC): 07 July 2015 09:46:35
Eccentricity: 0.0001619
inclination: 98.2103°
perigee height: 701 km
apogee height: 703 km
right ascension of ascending node: 262.6871°
argument of perigee: 98.3483°
revolutions per day: 14.57104027
mean anomaly at epoch: 261.7900°
orbit number at epoch: 82716

The dashed part of the orbit path shows where the satellite is in the earth's shadow,  

DLR